TimeCDT,TemperatureF,Dew PointF,Humidity,Sea Level PressureIn,VisibilityMPH,Wind Direction,Wind SpeedMPH,Gust SpeedMPH,PrecipitationIn,Events,Conditions,WindDirDegrees,DateUTC
12:52 AM,66.9,64.0,90,29.82,10.0,NNW,5.8,-,N/A,,Partly Cloudy,340,2013-09-02 05:52:00
1:52 AM,66.0,62.1,87,29.82,10.0,NW,6.9,-,N/A,,Clear,320,2013-09-02 06:52:00
2:52 AM,64.0,62.1,93,29.83,10.0,NW,6.9,-,N/A,,Clear,320,2013-09-02 07:52:00
3:52 AM,62.1,60.1,93,29.84,10.0,NNW,5.8,-,N/A,,Clear,330,2013-09-02 08:52:00
4:52 AM,62.1,59.0,90,29.85,10.0,NW,4.6,-,0.01,,Clear,320,2013-09-02 09:52:00
5:52 AM,61.0,59.0,93,29.88,10.0,NNW,5.8,-,N/A,,Clear,330,2013-09-02 10:52:00
6:52 AM,61.0,59.0,93,29.89,10.0,NNW,3.5,-,N/A,,Clear,340,2013-09-02 11:52:00
7:52 AM,64.9,61.0,87,29.91,10.0,NNW,5.8,-,N/A,,Clear,330,2013-09-02 12:52:00
8:52 AM,68.0,62.1,81,29.92,10.0,NNW,5.8,-,N/A,,Clear,340,2013-09-02 13:52:00
9:52 AM,72.0,64.9,78,29.94,10.0,Variable,3.5,-,N/A,,Scattered Clouds,0,2013-09-02 14:52:00
10:07 AM,71.6,64.4,78,29.95,10.0,Calm,Calm,-,N/A,,Mostly Cloudy,0,2013-09-02 15:07:00
10:17 AM,71.6,64.4,78,29.95,10.0,NNE,4.6,-,N/A,,Scattered Clouds,30,2013-09-02 15:17:00
10:52 AM,73.0,64.0,73,29.94,10.0,NNE,4.6,-,N/A,,Mostly Cloudy,30,2013-09-02 15:52:00
10:59 AM,73.4,64.4,73,29.95,10.0,NNW,4.6,-,N/A,,Mostly Cloudy,340,2013-09-02 15:59:00
11:13 AM,73.4,62.6,69,29.95,10.0,NNW,5.8,-,N/A,,Overcast,330,2013-09-02 16:13:00
11:52 AM,73.9,64.0,71,29.94,10.0,NW,8.1,-,N/A,,Overcast,320,2013-09-02 16:52:00
12:03 PM,75.2,64.4,69,29.95,10.0,WNW,5.8,-,N/A,,Scattered Clouds,290,2013-09-02 17:03:00
12:52 PM,77.0,64.0,64,29.94,10.0,West,8.1,-,N/A,,Partly Cloudy,280,2013-09-02 17:52:00
1:52 PM,75.9,63.0,64,29.94,10.0,NW,13.8,-,N/A,,Scattered Clouds,320,2013-09-02 18:52:00
2:52 PM,77.0,62.1,60,29.93,10.0,WNW,12.7,-,N/A,,Partly Cloudy,300,2013-09-02 19:52:00
3:52 PM,75.9,61.0,60,29.93,10.0,NW,10.4,-,N/A,,Clear,320,2013-09-02 20:52:00
4:52 PM,75.0,59.0,57,29.93,10.0,NNW,8.1,-,N/A,,Clear,340,2013-09-02 21:52:00
5:52 PM,73.0,59.0,61,29.94,10.0,North,9.2,-,N/A,,Clear,360,2013-09-02 22:52:00
6:52 PM,70.0,57.9,65,29.94,10.0,North,6.9,-,N/A,,Clear,350,2013-09-02 23:52:00
7:52 PM,63.0,57.9,84,29.96,10.0,North,5.8,-,N/A,,Clear,350,2013-09-03 00:52:00
8:52 PM,62.1,57.0,84,29.98,10.0,NNE,5.8,-,N/A,,Clear,20,2013-09-03 01:52:00
9:52 PM,60.1,55.9,86,29.98,10.0,North,3.5,-,N/A,,Clear,360,2013-09-03 02:52:00
10:52 PM,57.9,55.9,93,29.99,10.0,Calm,Calm,-,N/A,,Clear,0,2013-09-03 03:52:00
11:52 PM,55.0,54.0,96,30.01,9.0,West,4.6,-,N/A,,Clear,280,2013-09-03 04:52:00